Other Public Products
Issued by NWS Charleston, SC

Current Version | Previous Version | Graphics & Text | Print | Product List | Glossary On
Versions: 1 2 3 4 5 6 7 8 9 10 11 12 13 14 15 16 17 18 19 20 21 22 23 24 25 26 27 28 29 30 31 32 33 34 35 36 37 38 39 40 41 42 43 44 45 46 47 48 49 50
000
FPUS82 KCHS 200127
OPUCHS

TEST...KCHS/KSAV Gateway Observations...TEST
National Weather Service Charleston SC
800 PM EST SUN NOV 19 2017

NOTE: "fair" indicates few or no clouds below 12,000 feet with no
significant weather and/or obstructions to visibility.

SCZ050-WAZ558-NCZ071-TXZ119-213-PAZ071-DCZ001-FLZ074-172-MI076-
NYZ176-178-MAZ016-IL014-TNZ027-NJZ106-GAZ044-MD014-200200-

...Gateway Observations for Charleston International...

CITY           SKY/WX    TMP DP  RH WIND       PRES   REMARKS
Chas Airport   CLEAR     52  39  61 NW7       30.00R
Seattle        LGT RAIN  44  39  82 SW7       29.71F
Charlotte      CLEAR     43  29  57 N7        30.04R
Dallas DFW     CLEAR     54  27  35 CALM      30.22S
Dallas Love    PTCLDY    54  33  45 CALM      30.23S
Philladelphia  CLOUDY    46  27  47 W18G25    29.81R
Wash National  PTCLDY    46  27  47 W12       29.90R
Baltimore      CLOUDY    40  26  57 W9        29.87R WCI  34
Miami          PTCLDY    76  64  66 W5        29.94R
Detroit        CLOUDY    32  19  58 W13G21    29.97R WCI  22
Newark         LGT RAIN  46  30  53 W13G21    29.73R
Laguardia      MOCLDY    46  27  47 NW14      29.71R
J F K          CLOUDY    46  26  45 NW16G26   29.72R
Boston Logan   CLOUDY    41  26  55 W21G29    29.56R
Ft. Lauderdale PTCLDY    75  63  66 SW6       29.93R
Chicago O`Hare CLEAR     31  20  63 W8        30.06S WCI  23
Chicago Midway CLEAR     31  21  66 SW9       30.08R WCI  23
Houston Bush   MOCLDY    52  37  56 CALM      30.23R
Houston Hobby  CLOUDY    57  34  41 N8        30.23R
Nashville      CLEAR     40  23  50 NW5       30.21R WCI  37
Atlanta        CLEAR     45  31  58 NW9       30.11R

$$

GAZ044-118-TXZ119-213-NCZ071-DCZ001-MDZ014-506-PAZ021-071-NJZ106-
NYZ176-178-MAZ106-OHZ011-021-055-MIZ076-KYZ091-ILZ014-INZ047-
MNZ060-ONZ431-200200-

...Gateway Observations for Savannah International...

CITY           SKY/WX    TMP DP  RH WIND       PRES   REMARKS
Savannah Arpt  CLEAR     52  35  52 NW9       30.04R
Atlanta        CLEAR     45  31  58 NW9       30.11R
Charlotte      CLEAR     43  29  57 N7        30.04R
Dallas DFW     CLEAR     54  27  35 CALM      30.22S
Houston Bush   MOCLDY    52  37  56 CALM      30.23R
Wash National  PTCLDY    46  27  47 W12       29.90R
Wash Dulles    CLOUDY    43  29  57 NW12      29.90R
Baltimore      CLOUDY    40  26  57 W9        29.87R WCI  34
Philadelphia   CLOUDY    46  27  47 W18G25    29.81R
Newark         LGT RAIN  46  30  53 W13G21    29.73R
Laguardia      MOCLDY    46  27  47 NW14      29.71R
J F K          CLOUDY    46  26  45 NW16G26   29.72R
Boston         CLOUDY    41  26  55 W21G29    29.56R
Pittsburg      FLURRIES  33  29  85 W16G23    29.92R WCI  23
Akron          FLURRIES  33  24  69 W14       29.96R WCI  23
Cleveland      CLOUDY    35  24  64 W10       29.99R WCI  27
Cincinnati     CLEAR     30  25  81 W6        30.13R WCI  24
Columbus       CLOUDY    31  21  66 W18G24    30.10R WCI  19
Detroit        CLOUDY    32  19  58 W13G21    29.97R WCI  22
Chicago O`Hare CLEAR     31  20  63 W8        30.06S WCI  23
Minneapolis    MOCLDY    38  26  62 SW5       29.85S WCI  34
Indianapolis   PTCLDY    29  22  75 W8        30.13S WCI  21
Toronto Canada MOCLDY    30  18  59 NW18      29.81R WCI  18

$$




USA.gov is the U.S. government's official web portal to all federal, state and local government web resources and services.